Regional Weather Roundup
Issued by NWS Sterling, VA

Home | Current Version | Previous Version | Graphics & Text | Print | Product List | Glossary On
Versions: 1 2 3 4 5 6 7 8 9 10 11 12 13 14 15 16 17 18 19 20 21 22 23 24 25 26 27 28 29 30 31 32 33 34 35 36 37 38 39 40 41 42 43 44 45 46
000
ASUS41 KLWX 280910
RWRLWX

REGIONAL WEATHER ROUNDUP
NATIONAL WEATHER SERVICE BALTIMORE MD/WASHINGTON DC
500 AM EDT TUE JUL 28 2015

Note: "FAIR" indicates few or no clouds below 12,000 feet
with no significant weather and/or obstructions to visibility.
 TC=TEMPERATURE CELSIUS

 * =Non NWS site. Station does not report precipitation (e.g. rain,
    snow, etc.), thunder, or fog.

DCZ001-MDZ009-015-VAZ040>042-051-053>054-281000-
WASHINGTON METRO

CITY           SKY/WX    TMP DP  RH WIND       PRES   REMARKS
WASHINGTON NAT MOCLDY    77  72  84 CALM      30.00F
DULLES         PTCLDY    70  69  97 CALM      30.00F
ANDREWS AFB    CLEAR     70  70  99 CALM      30.00F
FT BELVOIR     CLEAR     70  68  94 CALM      30.00S
QUANTICO       CLEAR     73  68  84 W6        30.00F
COLLEGE PARK*  CLEAR     72  72 100 CALM      30.00S
LEESBURG*      CLEAR     72  72 100 NW5       30.02S
MANASSAS*      CLEAR     70  70 100 CALM      30.00S
GAITHERSBURG*  CLEAR     72  68  88 CALM      30.05F

$$

MDZ006>007-011-014-281000-
BALTIMORE METRO

CITY           SKY/WX    TMP DP  RH WIND       PRES   REMARKS
BWI AIRPORT    MOCLDY    73  72  96 CALM      29.99F FOG
MD SCIENCE CTR   N/A     77  73  87 MISG      30.00S
MARTIN STATE   CLEAR     73  73 100 CALM      30.01F FOG
ANNAPOLIS      MOCLDY    75  71  87 CALM      29.99F
FORT MEADE*    CLEAR     68  66  94 CALM      30.02F

$$

MDZ012-015-019>023-281000-
MARYLAND EASTERN SHORE

CITY           SKY/WX    TMP DP  RH WIND       PRES   REMARKS
OCEAN CITY     MOCLDY    75  72  90 SW3       30.00F
SALISBURY      MOCLDY    69  68  96 CALM      30.00F
BAY BRIDGE AP*   N/A     75  72  88 CALM      30.00S
CAMBRIDGE*     CLEAR     72  68  88 CALM      29.99F
EASTON*        CLEAR     74  74 100 CALM      30.04S

$$

MDZ017>025-281000-
SOUTHERN MARYLAND

CITY           SKY/WX    TMP DP  RH WIND       PRES   REMARKS
PATUXENT RIVER PTCLDY    72  70  93 CALM      29.99F
ST INIGOES     CLEAR     75  70  84 SW5       29.99F
LEONARDTOWN*   PTCLDY    70  68  94 CALM      30.01F

$$

MDZ003>005-281000-
NORTH CENTRAL MARYLAND

CITY           SKY/WX    TMP DP  RH WIND       PRES   REMARKS
FREDERICK*       N/A    N/A N/A N/A MISG        N/A
HAGERSTOWN APT CLEAR     72  68  87 NE5       30.02S FOG
WESTMINSTER*   FOG       72  70  94 CALM      30.03F VSB 1/2

$$

MDZ501>502-281000-
WESTERN MARYLAND

CITY           SKY/WX    TMP DP  RH WIND       PRES   REMARKS
OAKLAND*       CLEAR     63 N/A N/A SE8       30.11S FOG
CUMBERLAND*    CLOUDY    70  70 100 CALM      30.06S VSB 1/4

$$

VAZ025>031-281000-
SHENANDOAH VALLEY

CITY           SKY/WX    TMP DP  RH WIND       PRES   REMARKS
WINCHESTER*    PTCLDY    70  68  94 CALM      30.02S FOG
FRONT ROYAL*   PTSUNNY   68  66  94 CALM      30.01F
LURAY*         FOG       70  70 100 CALM      30.02F VSB 1/4
NEW MARKET*    CLOUDY    69  69 100 CALM      30.01F VSB<1/4
STAUNTON*      PTCLDY    69  67  93 NW3       30.04F FOG
WAYNESBORO*    CLOUDY    68  68 100 CALM      30.03F VSB 1/4

$$

WVZ021-048>050-054>055-281000-
EASTERN WEST VIRGINIA PANHANDLE

CITY           SKY/WX    TMP DP  RH WIND       PRES   REMARKS
MARTINSBURG    PTCLDY    69  68  96 CALM      30.02S FOG
PETERSBURG*    CLOUDY   N/A N/A N/A CALM      30.03F FOG

$$

VAZ036>039-050-281000-
CENTRAL FOOTHILLS

CITY           SKY/WX    TMP DP  RH WIND       PRES   REMARKS
CHARLOTTESVILL CLOUDY    72  70  93 CALM      30.00F FOG
CULPEPER*      CLOUDY    68  68  99 NE3       30.01F FOG
ORANGE*        CLEAR     68  68 100 CALM      30.01F FOG
GORDONSVILLE*  FAIR      66  66 100 CALM      29.99F FOG
WARRENTON*     CLOUDY    70  70 100 CALM      30.00S FOG

$$

VAZ055>057-281000-
NORTH AND CENTRAL PIEDMONT

CITY           SKY/WX    TMP DP  RH WIND       PRES   REMARKS
FREDERICKSBRG* CLEAR     71  71 100 CALM      29.99S
STAFFORD*      CLEAR     67  66  97 CALM      30.04F FOG

$$

NCZ024-NYZ072-PAZ021-071-VAZ022-071-281000-
OTHER REGIONAL OBSERVATIONS

CITY           SKY/WX    TMP DP  RH WIND       PRES   REMARKS
NEW YORK CITY  CLEAR     75  68  78 VRB5      30.02F
PHILADELPHIA   MOCLDY    76  71  85 CALM      30.00F
PITTSBURGH     CLEAR     70  66  87 CALM      30.02R
ROANOKE        CLOUDY    73  69  87 NE5       30.05R
RICHMOND       PTCLDY    74  71  91 CALM      29.99F
RALEIGH        MOCLDY    74  70  87 S3        30.00F

$$

ANZ530>537-281000-
MARINE OBSERVATIONS

STATION/POSITION TIME  TEMP    WIND        PRES
                       AIR SEA DIR/SP/G
                 (UTC) (F)     (DEG/KT/KT) (MB)
THOMAS PT LIGHT  NOT AVBL
BALT KEY BRIDGE  0800   76     230/  5/  6 1015.6F
COVE POINT       0800   76     260/  1/  2 1016.6F
LEWISETTA        0800   75 82  250/  5/  6 1015.5F
SOLOMONS ISLAND  0800      82                N/A

$$




USA.gov is the U.S. government's official web portal to all federal, state and local government web resources and services.